(501270) = 2013 WE19 = 2014 WQ429

Discovered at Haleakala on 2013-11-27 by Pan-STARRS 1.

Orbit

Orbit type: Main Belt

Note: WebGL enabled browser required.

epoch2023-09-13.0
epoch JD2460200.5
perihelion date2019-12-23.48910
perihelion JD2458840.98910
argument of perihelion (°)34.89530
ascending node (°)111.31760
inclination (°)11.15488
eccentricity0.0673608
perihelion distance (AU)2.7963336
Tisserand w.r.t. Jupiter3.2
ΔV w.r.t. Earth (km/sec)11.0
semimajor axis (AU)2.9983017
mean anomaly (°)258.09141
mean daily motion (°/day)0.18984140
aphelion distance (AU)3.200
period (years)5.19
P-vector [x]-0.82104140
P-vector [y]0.46980024
P-vector [z]0.32431274
Q-vector [x]-0.54167331
Q-vector [y]-0.82047808
Q-vector [z]-0.18277238
absolute magnitude15.87
phase slope0.15
uncertainty0
referenceMPEC 2024-A158
observations used302
oppositions13
arc length (days)7321
first opposition used2003
last opposition used2024
residual rms (arc-secs)0.75
perturbers coarse indicatorM-v
perturbers precise indicator003Ek
first observation date used2003-12-28.0
last observation date used2024-01-13.0
computer nameMPCLINUX
JD of orbit computation2458010.372538
perihelion JD uncertainty (days)2.0678E-04
argument of perihelion uncertainty (°)4.6148E-05
ascending node uncertainty (°)2.6910E-05
inclination uncertainty (°)4.0932E-06
eccentricity uncertainty 5.4332E-08
perihelion distance uncertainty (AU)1.5070E-07
Minimum Orbit Intersection Distances (in AU)
for orbit epoch: 2460200.5, reference: E2024-AF8
Mercury2.43228
Venus2.07912
Earth1.81591
Mars1.14518
Jupiter1.86256
Saturn6.15811
Uranus15.6742
Neptune26.7668

Observations

315 total observations over interval: 2003 12 28.27001 – 2024 01 13.153688
These data are available for download (format description).

Date (UT) J2000 RA J2000 Dec Magn Location Ref
2003 12 28.27001 07 40 27.83 +20 08 58.3 20.4 V 691 – Steward Observatory, Kitt Peak-Spacewatch MPS 551664
2003 12 28.29791 07 40 26.50 +20 09 07.7 20.6 V 691 – Steward Observatory, Kitt Peak-Spacewatch MPS 551664
2003 12 28.32505 07 40 25.17 +20 09 16.7 20.1 V 691 – Steward Observatory, Kitt Peak-Spacewatch MPS 551664
2005 04 13.35900 14 28 04.46 +03 06 22.5 19.5 R 703 – Catalina Sky Survey MPS 551664
2005 04 13.36556 14 28 04.16 +03 06 24.4 19.5 R 703 – Catalina Sky Survey MPS 551664
2005 04 13.37208 14 28 04.01 +03 06 27.1 19.3 R 703 – Catalina Sky Survey MPS 551664
2005 04 13.37867 14 28 03.59 +03 06 29.4 18.9 R 703 – Catalina Sky Survey MPS 551664
2008 12 21.34901 06 21 47.41 +17 56 21.5 20.0 V 703 – Catalina Sky Survey MPS 551664
2008 12 21.35440 06 21 47.05 +17 56 22.6 19.7 V 703 – Catalina Sky Survey MPS 551664
2008 12 21.35978 06 21 46.76 +17 56 23.7 20.1 V 703 – Catalina Sky Survey MPS 551664
2008 12 21.36502 06 21 46.40 +17 56 24.0 19.6 V 703 – Catalina Sky Survey MPS 551664
2010 04 15.32671 13 13 16.96 +10 37 06.9 20.7 V 703 – Catalina Sky Survey MPS 551664
2010 04 15.33365 13 13 16.64 +10 37 08.1 21.3 V 703 – Catalina Sky Survey MPS 551664
2010 04 15.34066 13 13 16.32 +10 37 08.6 20.4 V 703 – Catalina Sky Survey MPS 551664
2010 04 15.34768 13 13 15.92 +10 37 12.6 19.9 V 703 – Catalina Sky Survey MPS 551664
2012 10 10.351587 23 52 35.293 -16 45 39.02 20.6 w F51 – Pan-STARRS 1, Haleakala MPS 551664
2012 10 10.365522 23 52 34.729 -16 45 41.25 20.4 w F51 – Pan-STARRS 1, Haleakala MPS 551664
2012 10 10.379449 23 52 34.182 -16 45 43.49 20.6 w F51 – Pan-STARRS 1, Haleakala MPS 551664
2012 10 10.393378 23 52 33.627 -16 45 45.68 20.6 w F51 – Pan-STARRS 1, Haleakala MPS 551664
2013 11 27.37045 05 25 17.229 +13 23 29.05 19.9 w F51 – Pan-STARRS 1, Haleakala MPS 488590
2013 11 27.38567 05 25 16.464 +13 23 29.93 19.8 w F51 – Pan-STARRS 1, Haleakala MPS 488590
2013 11 27.40093 05 25 15.695 +13 23 30.82 20.0 w F51 – Pan-STARRS 1, Haleakala MPS 488590
2013 11 27.41629 05 25 14.925 +13 23 31.68 20.0 w F51 – Pan-STARRS 1, Haleakala MPS 488590
2013 11 28.27742 05 24 32.62 +13 24 19.1 20.0 V 691 – Steward Observatory, Kitt Peak-Spacewatch MPS 488590
2013 11 28.29255 05 24 31.86 +13 24 19.8 20.1 V 691 – Steward Observatory, Kitt Peak-Spacewatch MPS 488590
2013 11 28.30520 05 24 31.20 +13 24 20.4 19.7 V 691 – Steward Observatory, Kitt Peak-Spacewatch MPS 488590
2013 12 04.23544 05 19 25.63 +13 31 18.5   691 – Steward Observatory, Kitt Peak-Spacewatch MPS 497270
2013 12 04.25316 05 19 24.65 +13 31 20.3   691 – Steward Observatory, Kitt Peak-Spacewatch MPS 497270
2013 12 04.26839 05 19 23.84 +13 31 21.8   691 – Steward Observatory, Kitt Peak-Spacewatch MPS 497270
2013 12 23.20998 05 02 20.22 +14 10 42.3 19.2 V 703 – Catalina Sky Survey MPS 498769
2013 12 23.21567 05 02 19.94 +14 10 45.2 19.2 V 703 – Catalina Sky Survey MPS 498769
2013 12 23.22138 05 02 19.81 +14 10 44.1 19.0 V 703 – Catalina Sky Survey MPS 498769
2013 12 23.22711 05 02 19.36 +14 10 46.8 18.9 V 703 – Catalina Sky Survey MPS 498769
2013 12 26.20965 04 59 49.91 +14 19 14.1 19.9 V G96 – Mt. Lemmon Survey MPS 498769
2013 12 26.21658 04 59 49.61 +14 19 15.7 19.9 V G96 – Mt. Lemmon Survey MPS 498769
2013 12 26.22351 04 59 49.26 +14 19 16.9 20.3 V G96 – Mt. Lemmon Survey MPS 498769
2013 12 26.23042 04 59 48.87 +14 19 18.1 19.9 V G96 – Mt. Lemmon Survey MPS 498769
2014 11 26.61141 11 44 48.506 +09 19 33.96 21.4 w F51 – Pan-STARRS 1, Haleakala MPS 551937
2014 11 26.62395 11 44 49.429 +09 19 30.95 21.4 w F51 – Pan-STARRS 1, Haleakala MPS 551937
2014 11 26.63648 11 44 50.342 +09 19 28.06 21.4 w F51 – Pan-STARRS 1, Haleakala MPS 551937
2014 11 30.59425 11 49 35.707 +09 04 57.97 21.4 w F51 – Pan-STARRS 1, Haleakala MPS 551937
2014 11 30.60616 11 49 36.541 +09 04 55.57 21.3 w F51 – Pan-STARRS 1, Haleakala MPS 551937
2014 11 30.63002 11 49 38.215 +09 04 50.55 21.2 w F51 – Pan-STARRS 1, Haleakala MPS 551937
2015 02 18.44143 12 33 23.059 +11 44 29.87 20.2 w F51 – Pan-STARRS 1, Haleakala MPS 580417
2015 02 18.45254 12 33 22.839 +11 44 35.00 20.3 w F51 – Pan-STARRS 1, Haleakala MPS 580417
2015 02 18.46333 12 33 22.627 +11 44 39.97 20.1 w F51 – Pan-STARRS 1, Haleakala MPS 580417
2015 02 18.47410 12 33 22.410 +11 44 44.94 20.2 w F51 – Pan-STARRS 1, Haleakala MPS 580417
2015 02 19.42707 12 33 04.12 +11 52 01.0 20.7 r G45 – Space Surveillance Telescope, Atom Site MPS 587234
2015 02 19.43121 12 33 04.01 +11 52 02.3 19.6 r G45 – Space Surveillance Telescope, Atom Site MPS 587234
2015 02 19.43549 12 33 03.99 +11 52 05.2 19.5 r G45 – Space Surveillance Telescope, Atom Site MPS 587234
2015 02 19.43964 12 33 03.83 +11 52 06.5 20.5 r G45 – Space Surveillance Telescope, Atom Site MPS 587234
2015 02 19.45035 12 33 03.63 +11 52 11.6 20.1 r G45 – Space Surveillance Telescope, Atom Site MPS 587234
2015 02 26.40596 12 30 14.74 +12 46 50.8 20.0 r G45 – Space Surveillance Telescope, Atom Site MPS 587234
2015 02 26.41431 12 30 14.51 +12 46 54.2 20.3 r G45 – Space Surveillance Telescope, Atom Site MPS 587234
2015 02 26.41846 12 30 14.32 +12 46 56.5 19.8 r G45 – Space Surveillance Telescope, Atom Site MPS 587234
2015 02 26.42102 12 30 14.30 +12 46 58.2 20.7 r G45 – Space Surveillance Telescope, Atom Site MPS 587234
2015 02 26.42516 12 30 14.18 +12 47 00.0 19.6 r G45 – Space Surveillance Telescope, Atom Site MPS 587234
2015 03 22.29030 12 14 33.86 +15 44 33.8 19.8 V 703 – Catalina Sky Survey MPS 592483
2015 03 22.29530 12 14 33.53 +15 44 35.7 20.1 V 703 – Catalina Sky Survey MPS 592483
2015 03 22.30031 12 14 33.35 +15 44 36.3 19.9 V 703 – Catalina Sky Survey MPS 592483
2015 03 22.30530 12 14 33.14 +15 44 39.0 20.5 V 703 – Catalina Sky Survey MPS 592483
2015 03 24.52433 12 12 51.575 +15 57 52.47 19.8 w F51 – Pan-STARRS 1, Haleakala MPS 592483
2015 03 24.53703 12 12 50.974 +15 57 56.77 19.8 w F51 – Pan-STARRS 1, Haleakala MPS 592483
2015 03 24.58145 12 12 48.879 +15 58 11.84 19.7 w F51 – Pan-STARRS 1, Haleakala MPS 592483
2015 03 24.59423 12 12 48.287 +15 58 16.20 19.8 w F51 – Pan-STARRS 1, Haleakala MPS 592483
2015 03 25.65837 12 11 59.97 +16 04 17.1 19.7 R D29 – Purple Mountain Observatory, XuYi Station MPS 592483
2015 03 25.67248 12 11 59.27 +16 04 21.3 19.7 R D29 – Purple Mountain Observatory, XuYi Station MPS 592483
2015 03 29.28776 12 09 15.78 +16 23 09.6 19.7 V 703 – Catalina Sky Survey MPS 595390
2015 03 29.29518 12 09 15.40 +16 23 12.4 19.8 V 703 – Catalina Sky Survey MPS 595390
2015 03 29.31003 12 09 14.76 +16 23 15.9 19.9 V 703 – Catalina Sky Survey MPS 595390
2015 04 12.26348 11 59 42.691 +17 09 51.10 20.2 w F51 – Pan-STARRS 1, Haleakala MPS 598553
2015 04 12.27489 11 59 42.255 +17 09 52.40 20.2 w F51 – Pan-STARRS 1, Haleakala MPS 598553
2015 04 12.28627 11 59 41.833 +17 09 53.66 20.1 w F51 – Pan-STARRS 1, Haleakala MPS 598553
2015 04 12.29777 11 59 41.394 +17 09 54.90 20.3 w F51 – Pan-STARRS 1, Haleakala MPS 598553
2015 04 13.28911 11 59 06.460 +17 11 33.66 20.1 w F51 – Pan-STARRS 1, Haleakala MPS 598553
2015 04 13.30090 11 59 06.032 +17 11 34.75 20.1 w F51 – Pan-STARRS 1, Haleakala MPS 598553
2015 04 13.31264 11 59 05.601 +17 11 35.86 20.0 w F51 – Pan-STARRS 1, Haleakala MPS 598553
2015 04 13.32430 11 59 05.178 +17 11 36.99 20.0 w F51 – Pan-STARRS 1, Haleakala MPS 598553
2017 07 25.56584 23 36 48.711 -13 47 48.49 21.0 w F51 – Pan-STARRS 1, Haleakala MPS 806612
2017 07 25.57701 23 36 48.612 -13 47 52.26 20.8 w F51 – Pan-STARRS 1, Haleakala MPS 806612
2017 07 25.58816 23 36 48.518 -13 47 55.97 20.9 w F51 – Pan-STARRS 1, Haleakala MPS 806612
2017 07 25.59932 23 36 48.411 -13 47 59.70 21.0 w F51 – Pan-STARRS 1, Haleakala MPS 806612
2017 08 18.49002 23 28 21.211 -16 26 24.10 20.5 w F51 – Pan-STARRS 1, Haleakala MPS 812093
2017 08 18.50118 23 28 20.818 -16 26 28.90 20.5 w F51 – Pan-STARRS 1, Haleakala MPS 812093
2017 08 18.51233 23 28 20.422 -16 26 33.67 20.4 w F51 – Pan-STARRS 1, Haleakala MPS 812093
2017 08 18.52353 23 28 20.015 -16 26 38.66 20.5 w F51 – Pan-STARRS 1, Haleakala MPS 812093
2017 09 13.43328 23 10 20.316 -19 20 03.77 20.1 i F51 – Pan-STARRS 1, Haleakala MPS 815575
2017 09 13.44302 23 10 19.882 -19 20 06.94 20.2 i F51 – Pan-STARRS 1, Haleakala MPS 815575
